TimeGMT,TemperatureF,Dew PointF,Humidity,Sea Level PressureIn,VisibilityMPH,Wind Direction,Wind SpeedMPH,Gust SpeedMPH,PrecipitationIn,Events,Conditions,WindDirDegrees,DateUTC
12:20 AM,35.6,33.8,93,30.01,0.5,Calm,Calm,-,N/A,Fog,Fog,0,2012-11-24 00:20:00
12:50 AM,33.8,33.8,100,30.01,0.2,Variable,2.3,-,N/A,Fog,Fog,0,2012-11-24 00:50:00
1:20 AM,33.8,33.8,100,30.01,0.2,Variable,2.3,-,N/A,Fog,Fog,0,2012-11-24 01:20:00
1:50 AM,35.6,33.8,93,30.01,0.3,Calm,Calm,-,N/A,Fog,Fog,0,2012-11-24 01:50:00
2:20 AM,33.8,33.8,100,30.01,0.2,Variable,2.3,-,N/A,Fog,Fog,0,2012-11-24 02:20:00
2:50 AM,33.8,32.0,93,30.01,0.1,East,3.5,-,N/A,Fog,Fog,90,2012-11-24 02:50:00
3:20 AM,33.8,33.8,100,30.01,0.1,East,4.6,-,N/A,Fog,Fog,100,2012-11-24 03:20:00
3:50 AM,33.8,32.0,93,30.01,0.1,ENE,4.6,-,N/A,Fog,Fog,70,2012-11-24 03:50:00
4:20 AM,33.8,32.0,93,30.01,0.2,East,3.5,-,N/A,Fog,Fog,90,2012-11-24 04:20:00
4:50 AM,33.8,32.0,93,29.98,0.2,ENE,4.6,-,N/A,Fog,Fog,70,2012-11-24 04:50:00
5:20 AM,33.8,33.8,100,29.98,0.2,Variable,3.5,-,N/A,Fog,Fog,0,2012-11-24 05:20:00
5:50 AM,35.6,33.8,93,29.98,0.2,East,4.6,-,N/A,Fog,Fog,80,2012-11-24 05:50:00
6:20 AM,35.6,35.6,100,29.98,0.3,ENE,5.8,-,N/A,Fog,Fog,60,2012-11-24 06:20:00
6:50 AM,35.6,35.6,100,29.98,0.6,East,4.6,-,N/A,Fog,Fog,80,2012-11-24 06:50:00
7:20 AM,37.4,35.6,93,29.98,4.3,East,4.6,-,N/A,,Mostly Cloudy,80,2012-11-24 07:20:00
7:50 AM,37.4,37.4,100,29.98,3.1,East,3.5,-,N/A,,Mostly Cloudy,80,2012-11-24 07:50:00
8:20 AM,39.2,37.4,93,29.98,-9999.0,East,4.6,-,N/A,,Light Drizzle,80,2012-11-24 08:20:00
8:50 AM,39.2,37.4,93,29.95,2.5,East,5.8,-,N/A,Rain,Light Rain,80,2012-11-24 08:50:00
9:20 AM,39.2,39.2,100,29.95,2.2,East,4.6,-,N/A,,Mostly Cloudy,80,2012-11-24 09:20:00
9:50 AM,41.0,41.0,100,29.95,-9999.0,ENE,5.8,-,N/A,Rain,Light Rain,70,2012-11-24 09:50:00
10:20 AM,42.8,41.0,93,29.95,2.5,East,6.9,-,N/A,Rain,Light Rain,80,2012-11-24 10:20:00
10:50 AM,42.8,42.8,100,29.92,3.1,East,9.2,-,N/A,Rain,Light Rain,80,2012-11-24 10:50:00
11:20 AM,44.6,44.6,100,29.92,4.3,East,8.1,-,N/A,Rain,Light Rain,100,2012-11-24 11:20:00
11:50 AM,46.4,44.6,93,29.89,5.0,East,10.4,-,N/A,Rain,Light Rain,90,2012-11-24 11:50:00
12:20 PM,46.4,44.6,93,29.86,4.3,East,6.9,-,N/A,Rain,Light Rain,80,2012-11-24 12:20:00
12:50 PM,46.4,46.4,100,29.86,6.2,East,10.4,-,N/A,Rain,Light Rain,90,2012-11-24 12:50:00
1:20 PM,48.2,46.4,93,29.83,5.0,East,6.9,-,N/A,Rain,Light Rain,100,2012-11-24 13:20:00
1:50 PM,48.2,46.4,93,29.80,4.3,East,8.1,-,N/A,Rain,Light Rain,90,2012-11-24 13:50:00
2:20 PM,48.2,48.2,100,29.80,4.3,East,8.1,-,N/A,Rain,Light Rain,100,2012-11-24 14:20:00
2:50 PM,48.2,48.2,100,29.77,4.3,ESE,9.2,-,N/A,Rain,Light Rain,110,2012-11-24 14:50:00
3:20 PM,48.2,48.2,100,29.74,4.3,ESE,10.4,-,N/A,Rain,Light Rain,110,2012-11-24 15:20:00
3:50 PM,48.2,46.4,93,29.74,4.3,ESE,9.2,-,N/A,Rain,Light Rain,110,2012-11-24 15:50:00
4:20 PM,48.2,46.4,93,29.71,4.3,East,11.5,-,N/A,Rain,Light Rain,100,2012-11-24 16:20:00
4:50 PM,48.2,46.4,93,29.68,4.3,ESE,13.8,-,N/A,Rain,Light Rain,110,2012-11-24 16:50:00
5:20 PM,48.2,46.4,93,29.68,5.0,ESE,8.1,-,N/A,Rain,Light Rain,110,2012-11-24 17:20:00
5:50 PM,50.0,48.2,94,29.65,5.0,ESE,12.7,-,N/A,Rain,Light Rain,120,2012-11-24 17:50:00
6:20 PM,50.0,48.2,94,29.62,5.0,ESE,12.7,-,N/A,Rain,Light Rain,110,2012-11-24 18:20:00
6:50 PM,50.0,46.4,87,29.62,6.2,East,11.5,-,N/A,,Mostly Cloudy,100,2012-11-24 18:50:00
7:20 PM,50.0,46.4,87,29.59,6.2,ESE,11.5,-,N/A,,Mostly Cloudy,110,2012-11-24 19:20:00
7:50 PM,50.0,46.4,87,29.56,6.2,ESE,10.4,-,N/A,Rain,Light Rain,110,2012-11-24 19:50:00
8:20 PM,50.0,46.4,87,29.53,5.6,ESE,11.5,-,N/A,Rain,Light Rain,110,2012-11-24 20:20:00
8:50 PM,50.0,46.4,87,29.50,5.6,ESE,12.7,-,N/A,Rain,Light Rain,110,2012-11-24 20:50:00
9:20 PM,50.0,48.2,94,29.44,6.2,ESE,13.8,-,N/A,,Scattered Clouds,120,2012-11-24 21:20:00
9:50 PM,51.8,48.2,88,29.42,6.2,ESE,12.7,-,N/A,,Scattered Clouds,120,2012-11-24 21:50:00
10:20 PM,50.0,48.2,94,29.39,1.6,ESE,11.5,-,N/A,Rain,Rain,120,2012-11-24 22:20:00
10:50 PM,51.8,50.0,94,29.36,2.5,SE,11.5,23.0,N/A,Rain,Rain,140,2012-11-24 22:50:00
11:20 PM,51.8,50.0,94,29.33,1.9,SSE,13.8,-,N/A,Rain,Rain,160,2012-11-24 23:20:00
11:50 PM,53.6,51.8,94,29.33,2.8,South,13.8,-,N/A,Rain,Light Rain,180,2012-11-24 23:50:00